Find Starlink 30809

NORAD ID: 58183 Int'l Des: 2023-167 Owner: SPXS Country: US Constellation: starlink operational
LEOCIRCULAR

Current View

Loading 3D Globe...

About Starlink 30809

Starlink 30809 (NORAD 58183) is a starlink constellation satellite (v2 mini) launched Oct 30, 2023 by SPXS of US. It operates in LEO, CIRCULAR orbit with a mass of 730.00 kg.

Upcoming Passes

Passes for default location (London). Set your location on the main map for personalized predictions.

Altitude History

Loading altitude history...

Two-Line Element Set

1 58183U 23167J 26264.01645308 .00000186 00000-0 16281-4 0 9998
2 58183 43.0019 120.6497 0001448 265.4722 94.5964 15.27578012160853
Epoch: Sep 21, 2026 • Age: 14 hours

Current Status

Altitude 488.3 km
Apogee / Perigee N/A
Velocity 7.62 km/s
Sub-Earth Point -24.07°S, 126.94°W
Launch Date Oct 30, 2023
Age 2.8 years
Type internet

Technical Details

Classification Payload
Mass 730.00 kg
Dry Mass 700.00 kg
Length 0.30 m
Span 29.00 m
Shape ? Box + pan
Manufacturer SPXS
Bus Type Starlink V2M
Phase Status In Orbit
Owner/State SPXS/US

Most Searched